| time (UTC) | temp F | wind direction | speed MPH | gust MPH | rain 1hr in | rain 24hr in | rain mn in | humidity % | barometer mb |
| 20260831011551 | 76 | 77 | 5.0 | 10.0 | 0.00 | 0.00 | 0.00 | 27 | 1013.6 |
| 20260831010121 | 76 | 72 | 5.0 | 10.0 | 0.00 | 0.00 | 0.00 | 27 | 1013.6 |
| 20260831004550 | 77 | 58 | 5.0 | 14.0 | 0.00 | 0.00 | 0.00 | 27 | 1013.8 |
| 20260831003047 | 77 | 32 | 9.0 | 13.0 | 0.00 | 0.00 | 0.00 | 26 | 1013.8 |
| 20260831001555 | 78 | 56 | 5.0 | 12.0 | 0.00 | 0.00 | 0.00 | 24 | 1013.7 |
| 20260831000045 | 78 | 65 | 5.0 | 11.0 | 0.00 | 0.00 | 0.00 | 23 | 1013.9 |
| 20260830234543 | 78 | 27 | 3.0 | 8.0 | 0.00 | 0.00 | 0.00 | 23 | 1014.1 |
| 20260830233042 | 78 | 74 | 5.0 | 12.0 | 0.00 | 0.00 | 0.00 | 23 | 1014.1 |
| 20260830231540 | 77 | 62 | 6.0 | 13.0 | 0.00 | 0.00 | 0.00 | 24 | 1014.2 |
| 20260830230048 | 78 | 30 | 7.0 | 10.0 | 0.00 | 0.00 | 0.00 | 23 | 1014.3 |
| 20260830224546 | 78 | 251 | 2.0 | 8.0 | 0.00 | 0.00 | 0.00 | 22 | 1014.4 |
| 20260830223035 | 78 | 37 | 3.0 | 8.0 | 0.00 | 0.00 | 0.00 | 23 | 1014.6 |
| 20260830221532 | 78 | 134 | 2.0 | 10.0 | 0.00 | 0.00 | 0.00 | 24 | 1014.8 |
| 20260830220030 | 76 | 134 | 3.0 | 9.0 | 0.00 | 0.00 | 0.00 | 25 | 1015.1 |
| 20260830214528 | 76 | 115 | 3.0 | 9.0 | 0.00 | 0.00 | 0.00 | 25 | 1015.5 |
| 20260830213026 | 76 | 143 | 3.0 | 10.0 | 0.00 | 0.00 | 0.00 | 25 | 1015.6 |
| 20260830211526 | 75 | 79 | 3.0 | 9.0 | 0.00 | 0.00 | 0.00 | 26 | 1015.8 |
| 20260830210021 | 75 | 79 | 4.0 | 8.0 | 0.00 | 0.00 | 0.00 | 27 | 1015.9 |
| 20260830204518 | 75 | 65 | 0.0 | 5.0 | 0.00 | 0.00 | 0.00 | 27 | 1016.1 |
| 20260830203018 | 75 | 94 | 0.0 | 2.0 | 0.00 | 0.00 | 0.00 | 27 | 1016.3 |
| 20260830201514 | 74 | 232 | 0.0 | 5.0 | 0.00 | 0.00 | 0.00 | 28 | 1016.6 |
| 20260830200011 | 73 | 256 | 1.0 | 6.0 | 0.00 | 0.00 | 0.00 | 29 | 1016.8 |
| 20260830194507 | 71 | 210 | 1.0 | 6.0 | 0.00 | 0.00 | 0.00 | 31 | 1016.9 |
| 20260830193005 | 71 | 171 | 1.0 | 6.0 | 0.00 | 0.00 | 0.00 | 33 | 1017.1 |
| 20260830191506 | 69 | 233 | 3.0 | 9.0 | 0.00 | 0.00 | 0.00 | 34 | 1017.2 |
| 20260830190059 | 69 | 243 | 1.0 | 8.0 | 0.00 | 0.00 | 0.00 | 37 | 1017.4 |
| 20260830184555 | 68 | 153 | 4.0 | 9.0 | 0.00 | 0.00 | 0.00 | 37 | 1017.7 |
| 20260830183111 | 67 | 315 | 4.0 | 8.0 | 0.00 | 0.00 | 0.00 | 38 | 1017.9 |
| 20260830181555 | 66 | 198 | 4.0 | 10.0 | 0.00 | 0.00 | 0.00 | 41 | 1018.1 |
| 20260830180105 | 65 | 151 | 2.0 | 9.0 | 0.00 | 0.00 | 0.00 | 42 | 1018.2 |
| 20260830174553 | 64 | 251 | 6.0 | 17.0 | 0.00 | 0.00 | 0.00 | 42 | 1018.3 |
| 20260830173106 | 63 | 233 | 7.0 | 13.0 | 0.00 | 0.00 | 0.00 | 46 | 1018.2 |
| 20260830171553 | 62 | 233 | 4.0 | 9.0 | 0.00 | 0.00 | 0.00 | 46 | 1018.3 |
| 20260830170038 | 61 | 253 | 7.0 | 10.0 | 0.00 | 0.00 | 0.00 | 50 | 1018.4 |
| 20260830164534 | 61 | 278 | 4.0 | 11.0 | 0.00 | 0.00 | 0.00 | 51 | 1018.6 |
| 20260830163032 | 60 | 286 | 5.0 | 11.0 | 0.00 | 0.00 | 0.00 | 52 | 1018.8 |
| 20260830161532 | 60 | 162 | 6.0 | 10.0 | 0.00 | 0.00 | 0.00 | 54 | 1018.8 |
| 20260830160032 | 59 | 172 | 4.0 | 10.0 | 0.00 | 0.00 | 0.00 | 56 | 1019.0 |
| 20260830154523 | 58 | 278 | 4.0 | 9.0 | 0.00 | 0.00 | 0.00 | 58 | 1019.1 |
| 20260830153018 | 57 | 243 | 5.0 | 8.0 | 0.00 | 0.00 | 0.00 | 60 | 1019.0 |
| 20260830151520 | 56 | 243 | 5.0 | 10.0 | 0.00 | 0.00 | 0.00 | 61 | 1019.1 |
| 20260830150014 | 54 | 240 | 6.0 | 10.0 | 0.00 | 0.00 | 0.00 | 63 | 1019.0 |
| 20260830144514 | 53 | 242 | 7.0 | 11.0 | 0.00 | 0.00 | 0.00 | 65 | 1019.1 |
| 20260830143011 | 52 | 244 | 6.0 | 11.0 | 0.00 | 0.00 | 0.00 | 68 | 1019.0 |
| 20260830141509 | 51 | 266 | 6.0 | 10.0 | 0.00 | 0.00 | 0.00 | 70 | 1018.9 |
| 20260830140004 | 0 | 0.0 | 0.0 | 0.00 | 0.00 | 0.00 | 1018.9 | ||
| 20260830134604 | 0 | 0.0 | 0.0 | 0.00 | 0.00 | 0.00 | 1018.7 | ||
| 20260830133055 | 0 | 0.0 | 0.0 | 0.00 | 0.00 | 0.00 | 1018.7 | ||
| 20260830131612 | 49 | 259 | 5.0 | 10.0 | 0.00 | 0.00 | 0.00 | 74 | 1018.7 |
| 20260830130100 | 49 | 257 | 5.0 | 9.0 | 0.00 | 0.00 | 0.00 | 74 | 1018.6 |
| 20260830124551 | 49 | 279 | 5.0 | 8.0 | 0.00 | 0.00 | 0.00 | 75 | 1018.5 |
| 20260830123054 | 49 | 273 | 5.0 | 9.0 | 0.00 | 0.00 | 0.00 | 75 | 1018.4 |
| 20260830121549 | 48 | 285 | 5.0 | 7.0 | 0.00 | 0.00 | 0.00 | 76 | 1018.4 |
| 20260830120049 | 48 | 271 | 3.0 | 5.0 | 0.00 | 0.00 | 0.00 | 77 | 1018.6 |
| 20260830114551 | 48 | 282 | 4.0 | 7.0 | 0.00 | 0.00 | 0.00 | 77 | 1018.5 |
| 20260830113047 | 48 | 289 | 2.0 | 3.0 | 0.00 | 0.00 | 0.00 | 77 | 1018.5 |
| 20260830111547 | 48 | 299 | 3.0 | 5.0 | 0.00 | 0.00 | 0.00 | 76 | 1018.5 |
| 20260830110105 | 49 | 289 | 3.0 | 6.0 | 0.00 | 0.00 | 0.00 | 76 | 1018.5 |
| 20260830104545 | 49 | 292 | 3.0 | 7.0 | 0.00 | 0.00 | 0.00 | 76 | 1018.4 |
| 20260830103044 | 48 | 295 | 4.0 | 6.0 | 0.00 | 0.00 | 0.00 | 77 | 1018.4 |
| 20260830101542 | 48 | 287 | 3.0 | 6.0 | 0.00 | 0.00 | 0.00 | 77 | 1018.3 |
| 20260830100040 | 48 | 295 | 4.0 | 6.0 | 0.00 | 0.00 | 0.00 | 76 | 1018.1 |
| 20260830094538 | 48 | 292 | 5.0 | 8.0 | 0.00 | 0.00 | 0.00 | 73 | 1018.0 |
| 20260830093053 | 48 | 289 | 4.0 | 5.0 | 0.00 | 0.00 | 0.00 | 72 | 1017.8 |
| 20260830091536 | 48 | 283 | 3.0 | 5.0 | 0.00 | 0.00 | 0.00 | 72 | 1017.8 |
| 20260830090038 | 49 | 286 | 3.0 | 5.0 | 0.00 | 0.00 | 0.00 | 71 | 1017.8 |
| 20260830084528 | 50 | 267 | 2.0 | 6.0 | 0.00 | 0.00 | 0.00 | 69 | 1017.7 |
| 20260830083024 | 51 | 246 | 4.0 | 7.0 | 0.00 | 0.00 | 0.00 | 67 | 1017.8 |
| 20260830081526 | 52 | 252 | 5.0 | 8.0 | 0.00 | 0.00 | 0.00 | 66 | 1017.7 |
| 20260830080021 | 52 | 252 | 1.0 | 5.0 | 0.00 | 0.00 | 0.00 | 65 | 1017.7 |
| 20260830074533 | 53 | 255 | 3.0 | 6.0 | 0.00 | 0.00 | 0.00 | 65 | 1017.8 |
| 20260830073015 | 53 | 245 | 3.0 | 5.0 | 0.00 | 0.00 | 0.00 | 65 | 1017.8 |
| 20260830071513 | 54 | 289 | 4.0 | 8.0 | 0.00 | 0.00 | 0.00 | 63 | 1017.9 |
| 20260830070010 | 53 | 266 | 2.0 | 4.0 | 0.00 | 0.00 | 0.00 | 64 | 1017.9 |
| 20260830064504 | 54 | 285 | 2.0 | 5.0 | 0.00 | 0.00 | 0.00 | 63 | 1017.7 |
| 20260830063101 | 55 | 310 | 3.0 | 6.0 | 0.00 | 0.00 | 0.00 | 62 | 1017.7 |
| 20260830061556 | 55 | 288 | 3.0 | 6.0 | 0.00 | 0.00 | 0.00 | 63 | 1017.7 |
| 20260830060052 | 54 | 296 | 3.0 | 5.0 | 0.00 | 0.00 | 0.00 | 63 | 1017.7 |
| 20260830054551 | 54 | 316 | 2.0 | 4.0 | 0.00 | 0.00 | 0.00 | 63 | 1017.7 |
| 20260830053053 | 55 | 298 | 2.0 | 6.0 | 0.00 | 0.00 | 0.00 | 61 | 1017.6 |
| 20260830051546 | 56 | 278 | 5.0 | 10.0 | 0.00 | 0.00 | 0.00 | 64 | 1017.6 |
| 20260830050034 | 56 | 248 | 5.0 | 9.0 | 0.00 | 0.00 | 0.00 | 65 | 1017.4 |
| 20260830044529 | 56 | 267 | 5.0 | 9.0 | 0.00 | 0.00 | 0.00 | 65 | 1017.3 |
| 20260830043026 | 56 | 266 | 3.0 | 9.0 | 0.00 | 0.00 | 0.00 | 65 | 1017.2 |
| 20260830041544 | 57 | 286 | 4.0 | 7.0 | 0.00 | 0.00 | 0.00 | 64 | 1017.2 |
| 20260830040016 | 57 | 270 | 6.0 | 9.0 | 0.00 | 0.00 | 0.00 | 63 | 1017.1 |
| 20260830034516 | 57 | 275 | 5.0 | 9.0 | 0.00 | 0.00 | 0.00 | 62 | 1016.9 |
| 20260830033008 | 58 | 285 | 7.0 | 10.0 | 0.00 | 0.00 | 0.00 | 62 | 1016.9 |
| 20260830031502 | 58 | 278 | 8.0 | 12.0 | 0.00 | 0.00 | 0.00 | 61 | 1016.6 |
| 20260830030058 | 59 | 277 | 6.0 | 13.0 | 0.00 | 0.00 | 0.00 | 59 | 1016.6 |
| 20260830024558 | 60 | 282 | 7.0 | 15.0 | 0.00 | 0.00 | 0.00 | 58 | 1016.6 |
| 20260830023102 | 60 | 279 | 9.0 | 15.0 | 0.00 | 0.00 | 0.00 | 56 | 1016.6 |
| 20260830021544 | 62 | 276 | 10.0 | 14.0 | 0.00 | 0.00 | 0.00 | 52 | 1016.4 |
| 20260830020044 | 63 | 284 | 10.0 | 26.0 | 0.00 | 0.00 | 0.00 | 50 | 1016.5 |
| 20260830014535 | 63 | 281 | 12.0 | 20.0 | 0.00 | 0.00 | 0.00 | 49 | 1016.5 |
| 20260830013029 | 64 | 297 | 12.0 | 17.0 | 0.00 | 0.00 | 0.00 | 48 | 1016.4 |